When you browse on this site, cookies collect data to enhance your experience and personalize the content and advertising you see.
Visit our Privacy Policy to learn more. By continuing to use the site, you agree to this use of cookies and data.
  • In Czech Republic
  • List of Countries
  • For 7 days
  • Water Temperature
  • Satellite Maps
  • Weather Map
  • Weather Widgets
  • user-avatar
    Login

    Hourly Weather Palermo

    Today, 21 January, Monday

    Time Temperature Precipitation Wind Pressure Humidity
    00:00 +8°C° 0 mm 3 mps 757 mmHg 91%
    01:00 +7°C° 0 mm 4 mps 757 mmHg 89%
    02:00 +8°C° 0 mm 3 mps 757 mmHg 89%
    03:00 +8°C° 0 mm 3 mps 756 mmHg 89%
    04:00 +8°C° 0 mm 3 mps 756 mmHg 89%
    05:00 +9°C° 0 mm 3 mps 756 mmHg 89%
    06:00 +9°C° 0 mm 3 mps 756 mmHg 90%
    07:00 +9°C° 0 mm 3 mps 756 mmHg 91%
    08:00 +10°C° 0.2 mm 3 mps 755 mmHg 90%
    09:00 +11°C° 0.2 mm 3 mps 755 mmHg 89%
    10:00 +11°C° 0.2 mm 3 mps 755 mmHg 88%
    11:00 +12°C° 0.6 mm 3 mps 755 mmHg 87%
    12:00 +12°C° 0.6 mm 3 mps 755 mmHg 87%
    13:00 +12°C° 0.6 mm 3 mps 755 mmHg 86%
    14:00 +13°C° 0.1 mm 3 mps 755 mmHg 85%
    15:00 +13°C° 0.1 mm 3 mps 754 mmHg 84%
    16:00 +13°C° 0.1 mm 3 mps 754 mmHg 83%
    17:00 +12°C° 0 mm 3 mps 754 mmHg 86%
    18:00 +11°C° 0 mm 3 mps 754 mmHg 90%
    19:00 +10°C° 0 mm 3 mps 753 mmHg 93%
    20:00 +10°C° 0 mm 3 mps 753 mmHg 93%
    21:00 +10°C° 0 mm 4 mps 754 mmHg 92%
    22:00 +8°C° 0 mm 4 mps 754 mmHg 92%
    23:00 +8°C° 0 mm 4 mps 754 mmHg 91%

    Tomorrow, 22 January, Tuesday

    Time Temperature Precipitation Wind Pressure Humidity
    00:00 +8°C° 0 mm 4 mps 754 mmHg 90%
    01:00 +9°C° 0 mm 5 mps 754 mmHg 89%
    02:00 +9°C° 0.1 mm 5 mps 753 mmHg 90%
    03:00 +9°C° 0.1 mm 5 mps 753 mmHg 92%
    04:00 +10°C° 0.1 mm 5 mps 753 mmHg 93%
    05:00 +11°C° 0.3 mm 4 mps 753 mmHg 93%
    06:00 +10°C° 0.3 mm 4 mps 753 mmHg 94%
    07:00 +10°C° 0.3 mm 4 mps 754 mmHg 94%
    08:00 +11°C° 0.2 mm 4 mps 754 mmHg 90%
    09:00 +11°C° 0.2 mm 3 mps 754 mmHg 87%
    10:00 +12°C° 0.2 mm 3 mps 755 mmHg 83%
    11:00 +12°C° 0.1 mm 4 mps 755 mmHg 80%
    12:00 +12°C° 0.1 mm 5 mps 754 mmHg 76%
    13:00 +13°C° 0.1 mm 6 mps 754 mmHg 73%
    14:00 +11°C° 0.1 mm 7 mps 754 mmHg 74%
    15:00 +11°C° 0.1 mm 7 mps 754 mmHg 74%
    16:00 +10°C° 0.1 mm 8 mps 753 mmHg 75%
    17:00 +9°C° 0 mm 7 mps 753 mmHg 78%
    18:00 +8°C° 0 mm 6 mps 753 mmHg 82%
    19:00 +7°C° 0 mm 5 mps 753 mmHg 86%
    20:00 +7°C° 0 mm 5 mps 753 mmHg 86%
    21:00 +7°C° 0 mm 6 mps 754 mmHg 85%
    22:00 +5°C° 0 mm 6 mps 754 mmHg 85%
    23:00 +5°C° 0 mm 6 mps 753 mmHg 84%

    Day after tomorrow, 23 January, Wednesday

    Time Temperature Precipitation Wind Pressure Humidity
    00:00 +6°C° 0 mm 5 mps 753 mmHg 84%
    01:00 +6°C° 0 mm 5 mps 753 mmHg 84%
    02:00 +6°C° 0 mm 5 mps 752 mmHg 85%
    03:00 +6°C° 0 mm 4 mps 752 mmHg 85%
    04:00 +6°C° 0 mm 4 mps 751 mmHg 86%
    05:00 +6°C° 0 mm 4 mps 751 mmHg 88%
    06:00 +6°C° 0 mm 4 mps 751 mmHg 89%
    07:00 +6°C° 0 mm 4 mps 750 mmHg 91%
    08:00 +7°C° 0.1 mm 4 mps 750 mmHg 87%
    09:00 +8°C° 0.1 mm 4 mps 750 mmHg 83%
    10:00 +9°C° 0.1 mm 5 mps 750 mmHg 79%
    11:00 +10°C° 0.1 mm 5 mps 749 mmHg 75%
    12:00 +10°C° 0.1 mm 5 mps 749 mmHg 72%
    13:00 +12°C° 0.1 mm 5 mps 748 mmHg 69%
    14:00 +12°C° 0.1 mm 5 mps 748 mmHg 70%
    15:00 +10°C° 0.1 mm 5 mps 747 mmHg 71%
    16:00 +11°C° 0.1 mm 4 mps 746 mmHg 72%
    17:00 +10°C° 0 mm 4 mps 746 mmHg 76%
    18:00 +8°C° 0 mm 4 mps 746 mmHg 81%
    19:00 +7°C° 0 mm 4 mps 746 mmHg 85%
    20:00 +7°C° 0 mm 4 mps 745 mmHg 86%
    21:00 +7°C° 0 mm 4 mps 745 mmHg 86%
    22:00 +7°C° 0 mm 5 mps 744 mmHg 87%
    23:00 +7°C° 0 mm 5 mps 744 mmHg 87%

    24 January, Thursday

    Time Temperature Precipitation Wind Pressure Humidity
    00:00 +7°C° 0 mm 5 mps 743 mmHg 87%
    01:00 +7°C° 0 mm 5 mps 742 mmHg 87%
    02:00 +7°C° 0.4 mm 5 mps 742 mmHg 88%
    03:00 +7°C° 0.4 mm 4 mps 741 mmHg 90%
    04:00 +7°C° 0.4 mm 4 mps 741 mmHg 92%
    05:00 +7°C° 0.7 mm 4 mps 741 mmHg 90%
    06:00 +8°C° 0.7 mm 3 mps 741 mmHg 88%
    07:00 +8°C° 0.7 mm 3 mps 740 mmHg 87%
    08:00 +8°C° 0.5 mm 3 mps 741 mmHg 86%
    09:00 +8°C° 0.5 mm 3 mps 741 mmHg 86%
    10:00 +8°C° 0.5 mm 2 mps 741 mmHg 85%
    11:00 +8°C° 0.6 mm 2 mps 741 mmHg 82%
    12:00 +9°C° 0.6 mm 2 mps 741 mmHg 79%
    13:00 +10°C° 0.6 mm 1 mps 740 mmHg 76%
    14:00 +10°C° 0.1 mm 1 mps 740 mmHg 77%
    15:00 +9°C° 0.1 mm 2 mps 740 mmHg 78%
    16:00 +9°C° 0.1 mm 2 mps 740 mmHg 78%
    17:00 +8°C° 0 mm 2 mps 741 mmHg 80%
    18:00 +7°C° 0 mm 2 mps 741 mmHg 83%
    19:00 +7°C° 0 mm 3 mps 742 mmHg 85%
    20:00 +7°C° 0.4 mm 3 mps 742 mmHg 84%
    21:00 +7°C° 0.4 mm 3 mps 742 mmHg 84%
    22:00 +7°C° 0.4 mm 3 mps 743 mmHg 84%
    23:00 +6°C° 1.7 mm 4 mps 743 mmHg 88%

    25 January, Friday

    Time Temperature Precipitation Wind Pressure Humidity
    00:00 +6°C° 1.7 mm 5 mps 743 mmHg 92%
    01:00 +5°C° 1.7 mm 6 mps 743 mmHg 96%
    02:00 +5°C° 1.7 mm 7 mps 743 mmHg 95%
    03:00 +6°C° 1.7 mm 7 mps 744 mmHg 93%
    04:00 +6°C° 1.7 mm 8 mps 744 mmHg 92%
    05:00 +6°C° 0.8 mm 7 mps 745 mmHg 92%
    06:00 +8°C° 0.8 mm 6 mps 746 mmHg 92%
    07:00 +8°C° 0.8 mm 5 mps 746 mmHg 92%
    08:00 +8°C° 0.1 mm 5 mps 747 mmHg 89%
    09:00 +9°C° 0.1 mm 5 mps 747 mmHg 85%
    10:00 +10°C° 0.1 mm 5 mps 748 mmHg 82%
    11:00 +10°C° 0.1 mm 5 mps 748 mmHg 81%
    12:00 +10°C° 0.1 mm 6 mps 748 mmHg 79%
    13:00 +11°C° 0.1 mm 6 mps 748 mmHg 78%
    14:00 +10°C° 0.5 mm 6 mps 748 mmHg 80%
    15:00 +10°C° 0.5 mm 6 mps 748 mmHg 81%
    16:00 +9°C° 0.5 mm 7 mps 749 mmHg 83%
    17:00 +9°C° 0.6 mm 6 mps 749 mmHg 85%
    18:00 +8°C° 0.6 mm 5 mps 750 mmHg 87%
    19:00 +8°C° 0.6 mm 4 mps 750 mmHg 89%
    20:00 +8°C° 0.6 mm 4 mps 751 mmHg 89%
    21:00 +8°C° 0.6 mm 3 mps 751 mmHg 90%
    22:00 +8°C° 0.6 mm 3 mps 752 mmHg 90%
    23:00 +8°C° 0.4 mm 2 mps 752 mmHg 90%

    26 January, Saturday

    Time Temperature Precipitation Wind Pressure Humidity
    00:00 +8°C° 0.4 mm 2 mps 752 mmHg 90%
    01:00 +9°C° 0.4 mm 2 mps 752 mmHg 89%
    02:00 +8°C° 0.4 mm 2 mps 752 mmHg 90%
    03:00 +8°C° 0.4 mm 2 mps 752 mmHg 91%
    04:00 +8°C° 0.4 mm 2 mps 752 mmHg 91%
    05:00 +8°C° 0.6 mm 2 mps 752 mmHg 92%
    06:00 +8°C° 0.6 mm 3 mps 752 mmHg 93%
    07:00 +7°C° 0.6 mm 4 mps 753 mmHg 93%
    08:00 +7°C° 0.1 mm 4 mps 753 mmHg 89%
    09:00 +9°C° 0.1 mm 3 mps 754 mmHg 84%
    10:00 +9°C° 0.1 mm 3 mps 754 mmHg 80%
    11:00 +9°C° 0.2 mm 3 mps 754 mmHg 78%
    12:00 +9°C° 0.2 mm 3 mps 754 mmHg 76%
    13:00 +10°C° 0.2 mm 2 mps 755 mmHg 74%
    14:00 +9°C° 0.1 mm 2 mps 755 mmHg 74%
    15:00 +9°C° 0.1 mm 2 mps 755 mmHg 73%
    16:00 +9°C° 0.1 mm 2 mps 755 mmHg 72%
    17:00 +8°C° 0 mm 2 mps 755 mmHg 75%
    18:00 +7°C° 0 mm 2 mps 756 mmHg 78%
    19:00 +6°C° 0 mm 2 mps 756 mmHg 82%
    20:00 +5°C° 0 mm 2 mps 756 mmHg 81%
    21:00 +6°C° 0 mm 1 mps 757 mmHg 81%
    22:00 +6°C° 0 mm 1 mps 757 mmHg 81%
    23:00 +5°C° 0 mm 1 mps 757 mmHg 81%
    Show more